Ostend, Belgium

8:53 AM CEST on July 26, 2017 (GMT +0200)
Ostend

Weather History for EBOS - March, 2013

Change the Weather History Date:

Monday, March 11, 2013

  Actual Average Record
Temperature  
Mean Temperature 28 °F -  
Max Temperature 30 °F 50 °F 59 °F (2007)
Min Temperature 26 °F 38 °F 26 °F (2013)
Degree Days  
Heating Degree Days 37    
Moisture  
Dew Point 22 °F    
Average Humidity 72    
Maximum Humidity 86    
Minimum Humidity 53    
Precipitation  
Precipitation 0.02 in - - ()
Sea Level Pressure  
Sea Level Pressure 29.71 in    
Wind  
Wind Speed 16 mph ()    
Max Wind Speed 25 mph    
Max Gust Speed 36 mph    
Visibility 5.4 miles    
Events Snow    
Averages and records for this station are not official NWS values.
T = Trace of Precipitation, MM = Missing Value Source: Averaged Metar Reports

Daily Weather History Graph

Daily Weather History Graph

Search for Another Location

Airport or City:

Trip Planner

Search our weather history database for the weather conditions in past years. The results will help you decide how hot, cold, wet, or windy it might be!

Date:

Astronomy

Mar. 11, 2013 Rise Set
Actual Time 7:11 AM CET 6:46 PM CET
Civil Twilight 6:38 AM CET 7:19 PM CET
Nautical Twilight 5:59 AM CET 7:58 PM CET
Astronomical Twilight 5:20 AM CET 8:37 PM CET
Moon 6:35 AM CET (3/11) 6:47 PM CET (3/11)
Length of Visible Light 12h 41m
Length of Day
11h 35m
Waning Crescent, 0% of the Moon is Illuminated
Mar 11
Waning Crescent
Mar 11
New
Mar 19
First Quarter
Mar 27
Full
Apr 3
Last Quarter

Hourly Weather History & Observations

Time (CET) Temp. Windchill Dew Point Humidity Pressure Visibility Wind Dir Wind Speed Gust Speed Precip Events Conditions
12:20 AM 32.0 °F 22.5 °F 23.0 °F 69% 29.71 in 6.2 mi ENE 12.7 mph - N/A   Mostly Cloudy
12:50 AM 32.0 °F 22.1 °F 23.0 °F 69% 29.71 in 6.2 mi ENE 13.8 mph - N/A   Mostly Cloudy
1:00 AM 32 °F - 24 °F 62% 29.73 in 11 mi ENE 13.4 mph - -   Overcast
1:20 AM 32.0 °F 22.1 °F 24.8 °F 75% 29.71 in 6.2 mi ENE 13.8 mph - N/A   Mostly Cloudy
1:50 AM 32.0 °F 22.1 °F 23.0 °F 69% 29.71 in 6.2 mi ENE 13.8 mph - N/A   Mostly Cloudy
2:20 AM 32.0 °F 22.5 °F 23.0 °F 69% 29.71 in 6.2 mi ENE 12.7 mph - N/A   Mostly Cloudy
2:50 AM 30.2 °F 19.3 °F 21.2 °F 69% 29.71 in 6.2 mi ENE 15.0 mph - N/A   Mostly Cloudy
3:20 AM 30.2 °F 18.5 °F 21.2 °F 69% 29.71 in 6.2 mi ENE 17.3 mph - N/A   Mostly Cloudy
3:50 AM 30.2 °F 18.9 °F 21.2 °F 69% 29.71 in 6.2 mi ENE 16.1 mph - N/A   Mostly Cloudy
4:00 AM 31 °F - 20 °F 53% 29.72 in 16 mi ENE 15.7 mph - -   Overcast
4:20 AM 30.2 °F 18.9 °F 21.2 °F 69% 29.71 in 6.2 mi ENE 16.1 mph - N/A   Mostly Cloudy
4:50 AM 30.2 °F 18.5 °F 19.4 °F 64% 29.71 in 6.2 mi ENE 17.3 mph - N/A   Mostly Cloudy
5:20 AM 30.2 °F 19.3 °F 21.2 °F 69% 29.71 in 6.2 mi ENE 15.0 mph - N/A   Mostly Cloudy
5:50 AM 30.2 °F 19.3 °F 23.0 °F 75% 29.71 in 6.2 mi ENE 15.0 mph - N/A   Mostly Cloudy
6:20 AM 30.2 °F 18.5 °F 21.2 °F 69% 29.71 in 6.2 mi ENE 17.3 mph - N/A   Mostly Cloudy
6:50 AM 30.2 °F 18.9 °F 21.2 °F 69% 29.71 in 6.2 mi ENE 16.1 mph - N/A   Mostly Cloudy
7:00 AM 29 °F - 21 °F 63% 29.72 in 19 mi ENE 15.7 mph - -   Overcast
7:20 AM 30.2 °F 18.9 °F 21.2 °F 69% 29.71 in 6.2 mi ENE 16.1 mph - N/A   Mostly Cloudy
7:50 AM 30.2 °F 18.1 °F 19.4 °F 64% 29.71 in 6.2 mi NE 18.4 mph - N/A   Mostly Cloudy
8:20 AM 28.4 °F 14.7 °F 21.2 °F 74% 29.71 in 6.2 mi ENE 21.9 mph - N/A Snow Light Snow Grains
8:50 AM 28.4 °F 15.4 °F 21.2 °F 74% 29.71 in 4.3 mi ENE 19.6 mph - N/A Snow Light Snow Grains
9:20 AM 28.4 °F 15.8 °F 23.0 °F 80% 29.71 in 5.6 mi ENE 18.4 mph - N/A Snow Light Snow Grains
9:50 AM 28.4 °F 14.7 °F 19.4 °F 69% 29.71 in 6.2 mi ENE 21.9 mph - N/A   Mostly Cloudy
10:00 AM 29 °F - 20 °F 58% 29.73 in 9 mi ENE 22.4 mph - - Snow Light Snow
10:20 AM 30.2 °F 16.8 °F 21.2 °F 69% 29.71 in 6.2 mi ENE 23.0 mph - N/A   Mostly Cloudy
10:50 AM 30.2 °F 16.5 °F 19.4 °F 64% 29.71 in 6.2 mi NE 24.2 mph - N/A   Scattered Clouds
11:20 AM 30.2 °F 16.8 °F 19.4 °F 64% 29.71 in 6.2 mi ENE 23.0 mph 35.7 mph N/A   Scattered Clouds
11:50 AM 30.2 °F 17.1 °F 19.4 °F 64% 29.74 in 6.2 mi ENE 21.9 mph - N/A   Scattered Clouds
12:20 PM 30.2 °F 17.1 °F 23.0 °F 75% 29.74 in 3.1 mi ENE 21.9 mph - N/A Snow Light Snow
12:50 PM 30.2 °F 17.4 °F 21.2 °F 69% 29.71 in 6.2 mi ENE 20.7 mph - N/A   Mostly Cloudy
1:00 PM 30 °F - 21 °F 58% 29.74 in 7 mi ENE 20.1 mph - - Snow Light Snow
1:20 PM 30.2 °F 16.8 °F 21.2 °F 69% 29.71 in 5.0 mi NE 23.0 mph - N/A Snow Light Snow Grains
1:50 PM 30.2 °F 17.4 °F 21.2 °F 69% 29.71 in 5.0 mi ENE 20.7 mph - N/A Snow Light Snow Grains
2:20 PM 30.2 °F 16.5 °F 21.2 °F 69% 29.71 in 5.6 mi ENE 24.2 mph - N/A   Scattered Clouds
2:50 PM 30.2 °F 17.8 °F 23.0 °F 75% 29.71 in 3.1 mi ENE 19.6 mph - N/A Snow Light Snow
3:20 PM 30.2 °F 17.1 °F 21.2 °F 69% 29.71 in 5.6 mi ENE 21.9 mph - N/A   Mostly Cloudy
3:50 PM 30.2 °F 17.4 °F 21.2 °F 69% 29.71 in 3.1 mi NE 20.7 mph - N/A Snow Light Snow
4:00 PM 29 °F - 22 °F 65% 29.72 in 3 mi NE 20.1 mph - - Snow Light Snow
4:20 PM 28.4 °F 15.4 °F 23.0 °F 80% 29.71 in 2.8 mi ENE 19.6 mph - N/A Snow Light Snow
4:50 PM 28.4 °F 15.8 °F 23.0 °F 80% 29.71 in 1.1 mi ENE 18.4 mph - N/A Snow Snow
5:20 PM 28.4 °F 15.1 °F 23.0 °F 80% 29.71 in 1.5 mi ENE 20.7 mph - N/A Snow Snow
5:50 PM 28.4 °F 14.7 °F 23.0 °F 80% 29.68 in 1.9 mi ENE 21.9 mph - N/A Snow Light Snow
6:20 PM 28.4 °F 14.7 °F 23.0 °F 80% 29.68 in - NE 21.9 mph - N/A Snow Light Snow
6:50 PM 28.4 °F 15.1 °F 23.0 °F 80% 29.68 in 2.5 mi ENE 20.7 mph - N/A Snow Light Snow
7:00 PM 28 °F - 23 °F 73% 29.71 in 2 mi ENE 20.1 mph - - Snow Light Snow
7:20 PM 28.4 °F 14.7 °F 23.0 °F 80% 29.71 in 4.3 mi ENE 21.9 mph - N/A Snow Light Snow
7:50 PM 28.4 °F 14.7 °F 23.0 °F 80% 29.71 in 3.7 mi ENE 21.9 mph - N/A Snow Light Snow
8:20 PM 28.4 °F 14.4 °F 21.2 °F 74% 29.68 in 2.2 mi ENE 23.0 mph - N/A Snow Light Snow
8:50 PM 26.6 °F 12.4 °F 23.0 °F 86% 29.68 in 2.2 mi NE 21.9 mph - N/A Snow Light Snow
9:20 PM 26.6 °F 11.4 °F 21.2 °F 80% 29.68 in 4.3 mi ENE 25.3 mph - N/A Snow Light Snow
9:50 PM 28.4 °F 15.1 °F 23.0 °F 80% 29.71 in 3.7 mi NE 20.7 mph - N/A Snow Light Snow
10:00 PM 28 °F - 22 °F 71% 29.71 in 4 mi NE 20.1 mph - - Snow Light Snow
10:20 PM 28.4 °F 15.4 °F 21.2 °F 74% 29.71 in 3.7 mi NE 19.6 mph - N/A Snow Light Snow
10:50 PM 28.4 °F 14.4 °F 21.2 °F 74% 29.71 in 2.8 mi ENE 23.0 mph - N/A Snow Light Snow
11:20 PM 26.6 °F 12.0 °F 23.0 °F 86% 29.71 in 1.9 mi NE 23.0 mph - N/A Snow Light Snow
11:50 PM 26.6 °F 12.4 °F 23.0 °F 86% 29.71 in 1.9 mi NE 21.9 mph - N/A Snow Light Snow